SDM535 UUDD-USTR

Flight info

Callsign SDM535
Flight time 2h 23m
Altitude 35000
Route OLMUN T629 IPSIL T830 LAMGU N604 OGSIN P983 GINPA
Aircraft A20N/M-SDE2E3FGHIRWXY/LB1

Departure

Time 2026-05-08 17:33
Airport Domodedovo International Airport (UUDD)

Arrival

Time 2026-05-08 19:56
Airport Roshchino International Airport (USTR)
Time Latitude Longitude Altitude Speed Heading
2026-05-08 16:44 55.41280 37.89809 576 ft 0 kts 59°
2026-05-08 17:14 55.41279 37.89805 559 ft 0 kts 59°
2026-05-08 17:15 55.41278 37.89803 558 ft 0 kts 59°
2026-05-08 17:16 55.41276 37.89796 556 ft 1 kts 59°
2026-05-08 17:16 55.41271 37.89784 553 ft 1 kts 44°
2026-05-08 17:16 55.41266 37.89775 564 ft 1 kts 29°
2026-05-08 17:16 55.41259 37.89769 586 ft 1 kts 14°
2026-05-08 17:17 55.41251 37.89766 576 ft 1 kts 359°
2026-05-08 17:17 55.41243 37.89767 576 ft 1 kts 359°
2026-05-08 17:17 55.41235 37.89766 580 ft 1 kts 14°
2026-05-08 17:17 55.41228 37.89763 578 ft 1 kts 24°
2026-05-08 17:18 55.41221 37.89757 579 ft 1 kts 34°
2026-05-08 17:18 55.41215 37.89749 578 ft 1 kts 45°
2026-05-08 17:18 55.41209 37.89739 580 ft 1 kts 54°
2026-05-08 17:18 55.41205 37.89728 576 ft 1 kts 60°
2026-05-08 17:19 55.41201 37.89716 576 ft 1 kts 66°
2026-05-08 17:19 55.41198 37.89704 580 ft 1 kts 76°
2026-05-08 17:19 55.41196 37.89690 580 ft 1 kts 90°
2026-05-08 17:19 55.41197 37.89677 578 ft 1 kts 105°
2026-05-08 17:20 55.41199 37.89664 578 ft 1 kts 120°
2026-05-08 17:20 55.41203 37.89652 579 ft 1 kts 130°
2026-05-08 17:20 55.41208 37.89642 579 ft 1 kts 139°
2026-05-08 17:20 55.41213 37.89635 582 ft 0 kts 144°
2026-05-08 17:25 55.41192 37.89660 578 ft 6 kts 147°
2026-05-08 17:25 55.41141 37.89719 576 ft 10 kts 146°
2026-05-08 17:25 55.41084 37.89787 573 ft 10 kts 146°
2026-05-08 17:26 55.41020 37.89863 573 ft 11 kts 146°
2026-05-08 17:26 55.40964 37.89931 571 ft 11 kts 145°
2026-05-08 17:26 55.40932 37.89930 566 ft 5 kts 210°
2026-05-08 17:26 55.40905 37.89870 576 ft 8 kts 234°
2026-05-08 17:27 55.40870 37.89782 572 ft 10 kts 236°
2026-05-08 17:27 55.40829 37.89676 572 ft 11 kts 236°
2026-05-08 17:27 55.40778 37.89599 570 ft 11 kts 200°
2026-05-08 17:27 55.40732 37.89517 574 ft 9 kts 237°
2026-05-08 17:28 55.40691 37.89412 568 ft 12 kts 235°
2026-05-08 17:28 55.40623 37.89361 571 ft 13 kts 153°
2026-05-08 17:28 55.40538 37.89468 567 ft 17 kts 144°
2026-05-08 17:28 55.40467 37.89551 565 ft 10 kts 147°
2026-05-08 17:29 55.40399 37.89632 564 ft 14 kts 145°
2026-05-08 17:29 55.40321 37.89727 565 ft 13 kts 146°
2026-05-08 17:29 55.40236 37.89828 563 ft 17 kts 146°
2026-05-08 17:29 55.40134 37.89951 563 ft 15 kts 145°
2026-05-08 17:30 55.40065 37.89978 556 ft 8 kts 211°
2026-05-08 17:30 55.40053 37.89903 554 ft 8 kts 289°
2026-05-08 17:30 55.40067 37.89850 558 ft 0 kts 297°
2026-05-08 17:31 55.40067 37.89848 557 ft 1 kts 297°
2026-05-08 17:31 55.40073 37.89831 560 ft 3 kts 297°
2026-05-08 17:31 55.40085 37.89788 560 ft 5 kts 298°
2026-05-08 17:31 55.40106 37.89722 558 ft 7 kts 298°
2026-05-08 17:32 55.40131 37.89643 565 ft 8 kts 301°
2026-05-08 17:32 55.40177 37.89544 565 ft 21 kts 317°
2026-05-08 17:32 55.40489 37.89163 570 ft 88 kts 326°
2026-05-08 17:32 55.41151 37.88371 580 ft 140 kts 326°
2026-05-08 17:33 55.42021 37.87314 957 ft 152 kts 326°
2026-05-08 17:33 55.42830 37.86117 1718 ft 153 kts 317°
2026-05-08 17:33 55.43531 37.84627 2260 ft 163 kts 307°
2026-05-08 17:33 55.44225 37.82923 2673 ft 180 kts 311°
2026-05-08 17:34 55.45071 37.81143 3102 ft 199 kts 314°
2026-05-08 17:34 55.46036 37.79245 3657 ft 213 kts 316°
2026-05-08 17:34 55.47187 37.77625 3950 ft 218 kts 333°
2026-05-08 17:34 55.48722 37.76957 4334 ft 242 kts
2026-05-08 17:35 55.50389 37.77860 4937 ft 264 kts 31°
2026-05-08 17:35 55.51694 37.80218 5703 ft 279 kts 58°
2026-05-08 17:35 55.52303 37.83513 6526 ft 290 kts 82°
2026-05-08 17:35 55.52449 37.87115 7351 ft 297 kts 87°
2026-05-08 17:36 55.52621 37.90777 8219 ft 303 kts 83°
2026-05-08 17:36 55.52955 37.94498 9062 ft 310 kts 79°
2026-05-08 17:36 55.53426 37.98255 9905 ft 317 kts 76°
2026-05-08 17:36 55.53983 38.02092 10534 ft 332 kts 75°
2026-05-08 17:37 55.54600 38.06134 11078 ft 345 kts 75°
2026-05-08 17:37 55.55227 38.10194 11897 ft 349 kts 74°
2026-05-08 17:37 55.55867 38.14356 12740 ft 353 kts 74°
2026-05-08 17:37 55.56510 38.18567 13556 ft 358 kts 74°
2026-05-08 17:38 55.57159 38.22847 14009 ft 362 kts 74°
2026-05-08 17:38 55.57807 38.27146 14144 ft 363 kts 74°
2026-05-08 17:38 55.58455 38.31461 14184 ft 363 kts 74°
2026-05-08 17:38 55.59101 38.35772 14182 ft 363 kts 74°
2026-05-08 17:39 55.59746 38.40090 14180 ft 363 kts 74°
2026-05-08 17:39 55.60390 38.44410 14176 ft 363 kts 74°
2026-05-08 17:39 55.61036 38.48750 14295 ft 366 kts 74°
2026-05-08 17:39 55.61686 38.53133 14971 ft 367 kts 74°
2026-05-08 17:40 55.62327 38.57468 15696 ft 370 kts 74°
2026-05-08 17:40 55.63130 38.61800 16139 ft 371 kts 65°
2026-05-08 17:40 55.64330 38.65846 16604 ft 371 kts 57°
2026-05-08 17:40 55.65654 38.69795 16998 ft 375 kts 57°
2026-05-08 17:41 55.66976 38.73782 17139 ft 376 kts 57°
2026-05-08 17:41 55.68297 38.77789 17163 ft 376 kts 57°
2026-05-08 17:41 55.69594 38.81741 17163 ft 375 kts 57°
2026-05-08 17:41 55.70906 38.85742 17165 ft 375 kts 57°
2026-05-08 17:42 55.72218 38.89745 17169 ft 375 kts 57°
2026-05-08 17:42 55.73645 38.93613 17199 ft 375 kts 48°
2026-05-08 17:42 55.75398 38.97045 17721 ft 375 kts 43°
2026-05-08 17:42 55.77202 39.00407 18520 ft 377 kts 43°
2026-05-08 17:43 55.79006 39.03815 19129 ft 380 kts 43°
2026-05-08 17:43 55.80824 39.07264 19734 ft 384 kts 43°
2026-05-08 17:43 55.82660 39.10747 20324 ft 388 kts 43°
2026-05-08 17:43 55.84517 39.14268 20905 ft 392 kts 43°
2026-05-08 17:44 55.86401 39.17846 21289 ft 402 kts 43°
2026-05-08 17:44 55.88354 39.21569 21470 ft 418 kts 44°
2026-05-08 17:44 55.90355 39.25399 21897 ft 425 kts 44°
2026-05-08 17:44 55.92375 39.29276 22466 ft 428 kts 43°
2026-05-08 17:45 55.94518 39.32967 23027 ft 430 kts 39°
2026-05-08 17:45 55.96725 39.36625 23571 ft 434 kts 39°
2026-05-08 17:45 55.98918 39.40277 24053 ft 438 kts 39°
2026-05-08 17:45 56.01157 39.44015 24527 ft 441 kts 39°
2026-05-08 17:46 56.03407 39.47777 24994 ft 444 kts 39°
2026-05-08 17:46 56.05669 39.51568 25447 ft 447 kts 40°
2026-05-08 17:46 56.07811 39.55684 25883 ft 454 kts 48°
2026-05-08 17:46 56.09653 39.60328 26298 ft 460 kts 55°
2026-05-08 17:47 56.11378 39.65182 26733 ft 463 kts 54°
2026-05-08 17:47 56.13107 39.69998 27147 ft 466 kts 54°
2026-05-08 17:47 56.14867 39.74895 27564 ft 468 kts 54°
2026-05-08 17:47 56.16062 39.78228 27810 ft 471 kts 54°
2026-05-08 17:48 56.18411 39.84802 28328 ft 475 kts 55°
2026-05-08 17:48 56.20195 39.89813 28700 ft 477 kts 55°
2026-05-08 17:48 56.21988 39.94863 29060 ft 480 kts 55°
2026-05-08 17:48 56.23788 39.99941 29386 ft 483 kts 55°
2026-05-08 17:49 56.25604 40.05079 29741 ft 486 kts 55°
2026-05-08 17:49 56.27420 40.10225 30075 ft 489 kts 55°
2026-05-08 17:49 56.29226 40.15357 30395 ft 491 kts 55°
2026-05-08 17:49 56.31070 40.20605 30707 ft 493 kts 55°
2026-05-08 17:50 56.32904 40.25840 31024 ft 495 kts 55°
2026-05-08 17:50 56.34126 40.29334 31231 ft 496 kts 55°
2026-05-08 17:50 56.35965 40.34600 31624 ft 496 kts 54°
2026-05-08 17:50 56.37798 40.39866 32044 ft 495 kts 54°
2026-05-08 17:51 56.40220 40.46837 32597 ft 493 kts 54°
2026-05-08 17:51 56.41450 40.50385 32878 ft 493 kts 54°
2026-05-08 17:51 56.43264 40.55628 33286 ft 491 kts 54°
2026-05-08 17:51 56.44988 40.60956 33669 ft 493 kts 60°
2026-05-08 17:52 56.46373 40.66636 34046 ft 495 kts 67°
2026-05-08 17:52 56.47383 40.72516 34365 ft 496 kts 73°
2026-05-08 17:52 56.49185 40.84565 34975 ft 494 kts 72°
2026-05-08 17:53 56.50092 40.90556 35122 ft 494 kts 72°
2026-05-08 17:53 56.51891 41.02555 35144 ft 492 kts 72°
2026-05-08 17:54 56.53658 41.14479 35140 ft 493 kts 73°
2026-05-08 17:54 56.55420 41.26477 35145 ft 493 kts 73°
2026-05-08 17:55 56.57174 41.38511 35136 ft 494 kts 73°
2026-05-08 17:55 56.58919 41.50562 35137 ft 494 kts 73°
2026-05-08 17:56 56.60652 41.62625 35134 ft 494 kts 73°
2026-05-08 17:56 56.62375 41.74717 35130 ft 494 kts 73°
2026-05-08 17:57 56.64088 41.86826 35123 ft 495 kts 73°
2026-05-08 17:57 56.65789 41.98946 35121 ft 495 kts 73°
2026-05-08 17:58 56.67480 42.11089 35115 ft 495 kts 73°
2026-05-08 17:58 56.69159 42.23249 35112 ft 496 kts 73°
2026-05-08 17:59 56.70820 42.35367 35106 ft 496 kts 74°
2026-05-08 17:59 56.72484 42.47610 35107 ft 497 kts 74°
2026-05-08 18:00 56.74162 42.59820 35106 ft 497 kts 72°
2026-05-08 18:00 56.77160 42.77834 35101 ft 497 kts 70°
2026-05-08 18:01 56.79157 42.89922 35102 ft 498 kts 71°
2026-05-08 18:01 56.81117 43.02063 35099 ft 498 kts 71°
2026-05-08 18:02 56.83057 43.14209 35101 ft 499 kts 71°
2026-05-08 18:02 56.84987 43.26379 35098 ft 499 kts 71°
2026-05-08 18:03 56.86897 43.38503 35096 ft 499 kts 71°
2026-05-08 18:03 56.88806 43.50712 35098 ft 500 kts 71°
2026-05-08 18:04 56.90706 43.62950 35100 ft 500 kts 72°
2026-05-08 18:04 56.92595 43.75206 35095 ft 500 kts 72°
2026-05-08 18:05 56.94471 43.87469 35094 ft 500 kts 72°
2026-05-08 18:05 56.96338 43.99767 35088 ft 500 kts 72°
2026-05-08 18:06 56.98194 44.12081 35087 ft 500 kts 72°
2026-05-08 18:06 57.00033 44.24378 35079 ft 500 kts 72°
2026-05-08 18:07 57.01846 44.36593 35076 ft 499 kts 72°
2026-05-08 18:07 57.03661 44.48913 35073 ft 499 kts 73°
2026-05-08 18:08 57.05461 44.61223 35064 ft 499 kts 73°
2026-05-08 18:08 57.07253 44.73573 35061 ft 499 kts 73°
2026-05-08 18:09 57.09034 44.85941 35059 ft 499 kts 73°
2026-05-08 18:09 57.10799 44.98298 35060 ft 499 kts 73°
2026-05-08 18:10 57.12541 45.10592 35056 ft 499 kts 73°
2026-05-08 18:10 57.14283 45.22981 35053 ft 500 kts 74°
2026-05-08 18:11 57.16015 45.35399 35055 ft 500 kts 74°
2026-05-08 18:11 57.17737 45.47841 35053 ft 500 kts 74°
2026-05-08 18:12 57.19443 45.60275 35055 ft 500 kts 74°
2026-05-08 18:12 57.21129 45.72654 35054 ft 501 kts 75°
2026-05-08 18:13 57.22812 45.85122 35050 ft 501 kts 75°
2026-05-08 18:13 57.24487 45.97632 35050 ft 501 kts 75°
2026-05-08 18:14 57.26148 46.10142 35046 ft 501 kts 75°
2026-05-08 18:14 57.27797 46.22664 35040 ft 501 kts 75°
2026-05-08 18:15 57.29435 46.35206 35042 ft 501 kts 75°
2026-05-08 18:15 57.31058 46.47745 35040 ft 501 kts 76°
2026-05-08 18:16 57.32660 46.60220 35030 ft 501 kts 76°
2026-05-08 18:16 57.34220 46.72437 35025 ft 501 kts 76°
2026-05-08 18:17 57.36577 46.84543 35017 ft 498 kts 63°
2026-05-08 18:17 57.39456 46.96240 35015 ft 498 kts 63°
2026-05-08 18:18 57.42305 47.07956 35011 ft 499 kts 64°
2026-05-08 18:18 57.45140 47.19714 35002 ft 499 kts 64°
2026-05-08 18:19 57.47959 47.31478 35000 ft 499 kts 64°
2026-05-08 18:19 57.50760 47.43224 34999 ft 499 kts 64°
2026-05-08 18:20 57.51007 47.44263 35002 ft 499 kts 64°
2026-05-08 18:21 57.52672 47.51260 34997 ft 500 kts 64°
2026-05-08 18:21 57.55483 47.63118 34991 ft 500 kts 64°
2026-05-08 18:22 57.58286 47.75013 34990 ft 501 kts 65°
2026-05-08 18:22 57.61075 47.86916 34990 ft 501 kts 65°
2026-05-08 18:23 57.61508 47.88768 34991 ft 501 kts 65°
2026-05-08 18:23 57.61835 47.90169 34989 ft 501 kts 65°
2026-05-08 18:24 57.64615 48.02120 34977 ft 502 kts 65°
2026-05-08 18:24 57.67377 48.14055 34992 ft 502 kts 65°
2026-05-08 18:25 57.70137 48.26052 34991 ft 503 kts 65°
2026-05-08 18:25 57.72894 48.38103 34977 ft 504 kts 65°
2026-05-08 18:26 57.75077 48.50547 34979 ft 504 kts 78°
2026-05-08 18:26 57.76089 48.63562 34979 ft 504 kts 83°
2026-05-08 18:27 57.76873 48.74382 34973 ft 505 kts 83°
2026-05-08 18:27 57.77950 48.89558 34972 ft 505 kts 83°
2026-05-08 18:28 57.78852 49.02627 34968 ft 505 kts 83°
2026-05-08 18:28 57.79738 49.15687 34957 ft 505 kts 84°
2026-05-08 18:29 57.80610 49.28763 34953 ft 505 kts 84°
2026-05-08 18:29 57.81464 49.41754 34952 ft 505 kts 84°
2026-05-08 18:30 57.82309 49.54832 34942 ft 505 kts 84°
2026-05-08 18:30 57.83141 49.67917 34941 ft 505 kts 84°
2026-05-08 18:31 57.83961 49.81020 34931 ft 505 kts 84°
2026-05-08 18:31 57.84766 49.94125 34934 ft 505 kts 84°
2026-05-08 18:32 57.85559 50.07209 34926 ft 504 kts 84°
2026-05-08 18:32 57.86340 50.20259 34919 ft 504 kts 84°
2026-05-08 18:33 57.87112 50.33348 34917 ft 504 kts 85°
2026-05-08 18:33 57.87870 50.46454 34914 ft 504 kts 85°
2026-05-08 18:34 57.88609 50.59463 34908 ft 504 kts 85°
2026-05-08 18:34 57.89339 50.72563 34905 ft 504 kts 85°
2026-05-08 18:35 57.90056 50.85678 34892 ft 504 kts 85°
2026-05-08 18:35 57.90757 50.98768 34891 ft 503 kts 85°
2026-05-08 18:36 57.91447 51.11879 34893 ft 503 kts 85°
2026-05-08 18:36 57.92118 51.24918 34888 ft 503 kts 86°
2026-05-08 18:37 57.92781 51.38049 34886 ft 503 kts 86°
2026-05-08 18:37 57.93322 51.48939 34881 ft 503 kts 86°
2026-05-08 18:38 57.93967 51.62046 34873 ft 502 kts 86°
2026-05-08 18:38 57.94601 51.75148 34868 ft 502 kts 86°
2026-05-08 18:39 57.95220 51.88234 34862 ft 502 kts 86°
2026-05-08 18:39 57.95825 52.01327 34862 ft 502 kts 86°
2026-05-08 18:40 57.96413 52.14352 34858 ft 501 kts 86°
2026-05-08 18:40 57.96989 52.27444 34853 ft 501 kts 86°
2026-05-08 18:41 57.97555 52.40539 34851 ft 501 kts 86°
2026-05-08 18:41 57.98107 52.53633 34842 ft 501 kts 87°
2026-05-08 18:42 57.98645 52.66708 34837 ft 501 kts 87°
2026-05-08 18:42 57.99169 52.79798 34836 ft 500 kts 87°
2026-05-08 18:43 57.99679 52.92884 34829 ft 500 kts 87°
2026-05-08 18:43 58.00173 53.05897 34824 ft 500 kts 87°
2026-05-08 18:44 58.00656 53.18987 34821 ft 500 kts 87°
2026-05-08 18:44 58.01126 53.32076 34822 ft 500 kts 88°
2026-05-08 18:45 58.02028 53.58355 34804 ft 500 kts 88°
2026-05-08 18:46 58.02458 53.71448 34807 ft 500 kts 88°
2026-05-08 18:46 58.02871 53.84462 34799 ft 500 kts 88°
2026-05-08 18:47 58.03273 53.97563 34800 ft 500 kts 88°
2026-05-08 18:47 58.03667 54.10648 34794 ft 499 kts 88°
2026-05-08 18:48 58.04051 54.23747 34793 ft 499 kts 88°
2026-05-08 18:48 58.04419 54.36770 34792 ft 499 kts 88°
2026-05-08 18:49 58.04775 54.49867 34793 ft 499 kts 88°
2026-05-08 18:49 58.05117 54.62940 34791 ft 499 kts 88°
2026-05-08 18:50 58.05407 54.76049 34789 ft 497 kts 92°
2026-05-08 18:50 58.04756 54.88981 34789 ft 495 kts 100°
2026-05-08 18:51 58.03846 55.01778 34787 ft 494 kts 100°
2026-05-08 18:51 58.02927 55.14628 34784 ft 494 kts 100°
2026-05-08 18:52 58.01992 55.27470 34785 ft 494 kts 100°
2026-05-08 18:52 58.01050 55.40320 34786 ft 494 kts 100°
2026-05-08 18:53 58.00103 55.53163 34777 ft 493 kts 100°
2026-05-08 18:53 57.99150 55.65888 34775 ft 493 kts 100°
2026-05-08 18:54 57.98179 55.78656 34771 ft 492 kts 100°
2026-05-08 18:54 57.97194 55.91429 34769 ft 492 kts 100°
2026-05-08 18:55 57.95705 56.10552 34767 ft 491 kts 100°
2026-05-08 18:56 57.94699 56.23284 34769 ft 491 kts 100°
2026-05-08 18:56 57.93679 56.36006 34770 ft 491 kts 100°
2026-05-08 18:57 57.92654 56.48621 34769 ft 490 kts 101°
2026-05-08 18:57 57.91610 56.61308 34766 ft 490 kts 101°
2026-05-08 18:58 57.90554 56.73980 34761 ft 490 kts 101°
2026-05-08 18:58 57.89486 56.86642 34764 ft 489 kts 101°
2026-05-08 18:59 57.88407 56.99281 34761 ft 489 kts 101°
2026-05-08 18:59 57.87317 57.11881 34761 ft 488 kts 101°
2026-05-08 19:00 57.86221 57.24397 34761 ft 488 kts 101°
2026-05-08 19:00 57.85109 57.36961 34754 ft 487 kts 101°
2026-05-08 19:01 57.83987 57.49491 34755 ft 487 kts 101°
2026-05-08 19:01 57.82849 57.62045 34759 ft 486 kts 101°
2026-05-08 19:02 57.81703 57.74541 34764 ft 486 kts 102°
2026-05-08 19:02 57.80555 57.86926 34753 ft 485 kts 102°
2026-05-08 19:03 57.79389 57.99384 34762 ft 484 kts 102°
2026-05-08 19:03 57.78215 58.11823 34774 ft 484 kts 102°
2026-05-08 19:04 57.77032 58.24234 34772 ft 483 kts 102°
2026-05-08 19:04 57.75847 58.36551 34771 ft 482 kts 102°
2026-05-08 19:05 57.74643 58.48974 34772 ft 482 kts 102°
2026-05-08 19:05 57.73448 58.61254 34776 ft 481 kts 102°
2026-05-08 19:06 57.72236 58.73551 34775 ft 480 kts 102°
2026-05-08 19:06 57.71012 58.85837 34771 ft 480 kts 102°
2026-05-08 19:07 57.70026 58.95639 34779 ft 479 kts 102°
2026-05-08 19:08 57.69350 59.02305 34778 ft 479 kts 102°
2026-05-08 19:09 57.68099 59.14559 34780 ft 479 kts 102°
2026-05-08 19:09 57.66839 59.26776 34786 ft 479 kts 102°
2026-05-08 19:10 57.65567 59.38982 34789 ft 478 kts 102°
2026-05-08 19:10 57.64293 59.51090 34792 ft 478 kts 102°
2026-05-08 19:11 57.62999 59.63271 34795 ft 478 kts 102°
2026-05-08 19:11 57.61694 59.75434 34796 ft 478 kts 102°
2026-05-08 19:12 57.60377 59.87593 34801 ft 478 kts 102°
2026-05-08 19:12 57.59047 59.99749 34804 ft 478 kts 103°
2026-05-08 19:13 57.57718 60.11786 34813 ft 477 kts 103°
2026-05-08 19:13 57.56368 60.23906 34816 ft 477 kts 103°
2026-05-08 19:14 57.55010 60.35983 34814 ft 476 kts 103°
2026-05-08 19:14 57.53643 60.48030 34816 ft 475 kts 103°
2026-05-08 19:15 57.52310 60.60055 34822 ft 474 kts 99°
2026-05-08 19:15 57.51846 60.72229 34821 ft 474 kts 93°
2026-05-08 19:16 57.51510 60.84451 34819 ft 473 kts 94°
2026-05-08 19:16 57.51147 60.96673 34815 ft 472 kts 94°
2026-05-08 19:17 57.50768 61.08865 34813 ft 471 kts 94°
2026-05-08 19:17 57.50378 61.21028 34813 ft 471 kts 94°
2026-05-08 19:18 57.49978 61.33111 34810 ft 471 kts 94°
2026-05-08 19:18 57.49564 61.45277 34810 ft 470 kts 94°
2026-05-08 19:19 57.49139 61.57420 34812 ft 471 kts 94°
2026-05-08 19:19 57.48704 61.69561 34818 ft 471 kts 94°
2026-05-08 19:19 57.48483 61.75653 34707 ft 472 kts 94°
2026-05-08 19:20 57.48262 61.81649 34348 ft 472 kts 94°
2026-05-08 19:20 57.48186 61.83707 34189 ft 472 kts 94°
2026-05-08 19:20 57.47807 61.93792 33435 ft 468 kts 94°
2026-05-08 19:20 57.47576 61.99815 32951 ft 469 kts 94°
2026-05-08 19:21 57.47342 62.05877 32466 ft 471 kts 94°
2026-05-08 19:21 57.47103 62.11952 31987 ft 473 kts 95°
2026-05-08 19:21 57.46861 62.18041 31442 ft 473 kts 95°
2026-05-08 19:21 57.46616 62.24158 30907 ft 474 kts 95°
2026-05-08 19:22 57.46371 62.30265 30389 ft 475 kts 95°
2026-05-08 19:22 57.46127 62.36381 29862 ft 473 kts 95°
2026-05-08 19:22 57.45882 62.42435 29279 ft 469 kts 95°
2026-05-08 19:22 57.45636 62.48440 28699 ft 463 kts 95°
2026-05-08 19:23 57.45389 62.54370 28126 ft 458 kts 95°
2026-05-08 19:23 57.45143 62.60238 27554 ft 454 kts 95°
2026-05-08 19:23 57.44894 62.66078 27014 ft 452 kts 95°
2026-05-08 19:23 57.44644 62.71872 26463 ft 449 kts 95°
2026-05-08 19:24 57.44393 62.77635 25948 ft 445 kts 95°
2026-05-08 19:24 57.44145 62.83268 25423 ft 441 kts 95°
2026-05-08 19:24 57.43894 62.88916 24920 ft 438 kts 95°
2026-05-08 19:24 57.43641 62.94545 24412 ft 435 kts 95°
2026-05-08 19:25 57.43388 63.00128 23927 ft 432 kts 95°
2026-05-08 19:25 57.43135 63.05669 23432 ft 429 kts 95°
2026-05-08 19:25 57.42890 63.10959 22905 ft 426 kts 95°
2026-05-08 19:25 57.42635 63.16414 22335 ft 422 kts 95°
2026-05-08 19:26 57.42381 63.21804 21756 ft 418 kts 95°
2026-05-08 19:26 57.42130 63.27080 21198 ft 414 kts 95°
2026-05-08 19:26 57.41877 63.32371 20638 ft 410 kts 95°
2026-05-08 19:26 57.41623 63.37622 20088 ft 406 kts 96°
2026-05-08 19:27 57.41369 63.42812 19554 ft 402 kts 96°
2026-05-08 19:27 57.41116 63.47962 19019 ft 399 kts 96°
2026-05-08 19:27 57.40862 63.53072 18499 ft 396 kts 96°
2026-05-08 19:27 57.40609 63.58140 17963 ft 392 kts 96°
2026-05-08 19:28 57.40441 63.61472 17567 ft 390 kts 96°
2026-05-08 19:28 57.40188 63.66460 16991 ft 387 kts 96°
2026-05-08 19:28 57.39934 63.71430 16422 ft 384 kts 96°
2026-05-08 19:28 57.39616 63.76274 15872 ft 381 kts 101°
2026-05-08 19:29 57.38988 63.81085 15316 ft 378 kts 105°
2026-05-08 19:29 57.38326 63.85725 14784 ft 375 kts 105°
2026-05-08 19:29 57.37668 63.90398 14252 ft 373 kts 105°
2026-05-08 19:29 57.37015 63.95041 13733 ft 371 kts 105°
2026-05-08 19:30 57.36366 63.99646 13157 ft 368 kts 105°
2026-05-08 19:30 57.35718 64.04219 12583 ft 366 kts 105°
2026-05-08 19:30 57.35071 64.08759 12017 ft 364 kts 105°
2026-05-08 19:30 57.34427 64.13268 11507 ft 360 kts 106°
2026-05-08 19:31 57.33786 64.17736 11004 ft 357 kts 106°
2026-05-08 19:31 57.33151 64.22151 10543 ft 353 kts 107°
2026-05-08 19:31 57.32523 64.26512 10085 ft 349 kts 107°
2026-05-08 19:31 57.31898 64.30839 9620 ft 346 kts 107°
2026-05-08 19:32 57.31276 64.35125 9122 ft 343 kts 107°
2026-05-08 19:32 57.30666 64.39314 8634 ft 339 kts 107°
2026-05-08 19:32 57.30054 64.43504 8150 ft 336 kts 107°
2026-05-08 19:32 57.29446 64.47662 7673 ft 333 kts 107°
2026-05-08 19:33 57.28736 64.51710 7203 ft 329 kts 115°
2026-05-08 19:33 57.27688 64.55430 6739 ft 325 kts 123°
2026-05-08 19:33 57.26517 64.58983 6285 ft 322 kts 123°
2026-05-08 19:33 57.25364 64.62515 5803 ft 320 kts 123°
2026-05-08 19:34 57.24220 64.66034 5330 ft 318 kts 122°
2026-05-08 19:34 57.23088 64.69517 4883 ft 315 kts 122°
2026-05-08 19:34 57.21969 64.72957 4478 ft 310 kts 122°
2026-05-08 19:34 57.20865 64.76340 4106 ft 306 kts 123°
2026-05-08 19:35 57.19773 64.79678 3725 ft 301 kts 123°
2026-05-08 19:35 57.18698 64.82968 3347 ft 297 kts 123°
2026-05-08 19:35 57.17642 64.86194 3068 ft 289 kts 123°
2026-05-08 19:35 57.16623 64.89288 2998 ft 274 kts 123°
2026-05-08 19:36 57.15665 64.92199 3000 ft 258 kts 123°
2026-05-08 19:36 57.14743 64.94921 2992 ft 243 kts 128°
2026-05-08 19:36 57.13678 64.97177 2995 ft 225 kts 140°
2026-05-08 19:36 57.12552 64.99037 2996 ft 211 kts 140°
2026-05-08 19:37 57.11482 65.00817 2882 ft 205 kts 140°
2026-05-08 19:37 57.10435 65.02574 2691 ft 200 kts 140°
2026-05-08 19:37 57.09439 65.04258 2487 ft 191 kts 140°
2026-05-08 19:37 57.08545 65.05989 2336 ft 182 kts 124°
2026-05-08 19:38 57.08203 65.08147 2265 ft 173 kts 92°
2026-05-08 19:38 57.08462 65.10209 2196 ft 163 kts 68°
2026-05-08 19:38 57.09020 65.11919 2142 ft 149 kts 57°
2026-05-08 19:38 57.09687 65.13454 2099 ft 156 kts 52°
2026-05-08 19:39 57.10378 65.14887 2031 ft 143 kts 51°
2026-05-08 19:39 57.11033 65.16218 1892 ft 139 kts 52°
2026-05-08 19:39 57.11682 65.17529 1743 ft 138 kts 52°
2026-05-08 19:39 57.12324 65.18826 1587 ft 135 kts 52°
2026-05-08 19:40 57.12955 65.20100 1433 ft 137 kts 52°
2026-05-08 19:40 57.13593 65.21387 1263 ft 134 kts 52°
2026-05-08 19:40 57.14212 65.22648 1108 ft 132 kts 51°
2026-05-08 19:40 57.14819 65.23909 955 ft 130 kts 50°
2026-05-08 19:41 57.15435 65.25143 809 ft 131 kts 48°
2026-05-08 19:41 57.16053 65.26350 635 ft 129 kts 49°
2026-05-08 19:41 57.16663 65.27564 474 ft 129 kts 48°
2026-05-08 19:41 57.17267 65.28776 391 ft 123 kts 47°
2026-05-08 19:42 57.17909 65.30038 567 ft 147 kts 49°
2026-05-08 19:42 57.18640 65.31516 1025 ft 172 kts 49°
2026-05-08 19:42 57.19531 65.33343 1406 ft 217 kts 51°
2026-05-08 19:42 57.20768 65.35367 1800 ft 263 kts 31°
2026-05-08 19:43 57.22532 65.36761 2317 ft 292 kts 27°
2026-05-08 19:43 57.24489 65.38079 2520 ft 299 kts 11°
2026-05-08 19:43 57.26449 65.38049 2759 ft 268 kts 345°
2026-05-08 19:43 57.28018 65.36648 2932 ft 237 kts 316°
2026-05-08 19:44 57.28982 65.34396 2928 ft 218 kts 301°
2026-05-08 19:44 57.29643 65.31883 2554 ft 218 kts 285°
2026-05-08 19:44 57.30099 65.29180 2204 ft 222 kts 284°
2026-05-08 19:44 57.30512 65.26476 2077 ft 212 kts 274°
2026-05-08 19:45 57.30365 65.23931 2137 ft 189 kts 252°
2026-05-08 19:45 57.30016 65.21527 2381 ft 194 kts 251°
2026-05-08 19:45 57.29671 65.19196 2638 ft 175 kts 251°
2026-05-08 19:45 57.29380 65.17222 2854 ft 146 kts 251°
2026-05-08 19:46 57.29109 65.15410 2965 ft 147 kts 251°
2026-05-08 19:46 57.28838 65.13618 2966 ft 144 kts 251°
2026-05-08 19:46 57.27606 65.10900 2977 ft 139 kts 211°
2026-05-08 19:47 57.26756 65.09993 2965 ft 141 kts 208°
2026-05-08 19:47 57.25886 65.09103 3003 ft 157 kts 209°
2026-05-08 19:47 57.24866 65.08002 2976 ft 174 kts 211°
2026-05-08 19:47 57.23831 65.06823 2980 ft 175 kts 212°
2026-05-08 19:48 57.22820 65.05634 2982 ft 175 kts 212°
2026-05-08 19:48 57.21791 65.04416 2986 ft 177 kts 212°
2026-05-08 19:48 57.20743 65.03175 2961 ft 175 kts 213°
2026-05-08 19:48 57.19734 65.01976 2978 ft 175 kts 212°
2026-05-08 19:49 57.18692 65.00740 2975 ft 175 kts 212°
2026-05-08 19:49 57.17681 64.99545 2979 ft 176 kts 212°
2026-05-08 19:49 57.16653 64.98332 2961 ft 175 kts 212°
2026-05-08 19:49 57.15625 64.97124 3005 ft 175 kts 211°
2026-05-08 19:50 57.14468 64.96597 2951 ft 172 kts 175°
2026-05-08 19:50 57.13426 64.97511 2877 ft 164 kts 140°
2026-05-08 19:50 57.12638 64.98902 2800 ft 151 kts 140°
2026-05-08 19:50 57.11885 65.00192 2680 ft 145 kts 141°
2026-05-08 19:51 57.11142 65.01428 2478 ft 144 kts 141°
2026-05-08 19:51 57.10398 65.02673 2297 ft 143 kts 140°
2026-05-08 19:51 57.09673 65.03887 2208 ft 137 kts 140°
2026-05-08 19:51 57.08948 65.05100 2202 ft 142 kts 140°
2026-05-08 19:52 57.08264 65.06400 2201 ft 143 kts 127°
2026-05-08 19:52 57.07976 65.08096 2221 ft 140 kts 94°
2026-05-08 19:52 57.08189 65.09809 2200 ft 139 kts 69°
2026-05-08 19:52 57.08693 65.11338 2200 ft 141 kts 56°
2026-05-08 19:53 57.09321 65.12745 2203 ft 141 kts 51°
2026-05-08 19:53 57.09978 65.14092 2176 ft 143 kts 50°
2026-05-08 19:53 57.10647 65.15441 2033 ft 141 kts 51°
2026-05-08 19:53 57.11302 65.16761 1861 ft 139 kts 51°
2026-05-08 19:54 57.11948 65.18066 1704 ft 137 kts 52°
2026-05-08 19:54 57.12590 65.19363 1538 ft 137 kts 52°
2026-05-08 19:54 57.13221 65.20638 1367 ft 136 kts 52°
2026-05-08 19:54 57.13882 65.21975 1195 ft 146 kts 51°
2026-05-08 19:55 57.14562 65.23348 1022 ft 144 kts 49°
2026-05-08 19:55 57.15230 65.24702 841 ft 143 kts 50°
2026-05-08 19:55 57.15892 65.26044 664 ft 140 kts 49°
2026-05-08 19:55 57.16556 65.27369 511 ft 141 kts 48°
2026-05-08 19:56 57.17214 65.28702 390 ft 138 kts 49°
2026-05-08 19:56 57.17776 65.29841 381 ft 92 kts 47°
2026-05-08 19:56 57.18071 65.30438 373 ft 34 kts 48°
2026-05-08 19:56 57.18218 65.30739 368 ft 33 kts 48°
2026-05-08 19:57 57.18380 65.31055 360 ft 33 kts 47°
2026-05-08 19:57 57.18510 65.31325 361 ft 25 kts 48°
2026-05-08 19:57 57.18619 65.31545 355 ft 21 kts 46°
2026-05-08 19:57 57.18704 65.31725 346 ft 9 kts 65°
2026-05-08 19:58 57.18691 65.31811 338 ft 10 kts 119°
2026-05-08 19:58 57.18626 65.31925 332 ft 14 kts 140°
2026-05-08 19:58 57.18547 65.32055 330 ft 16 kts 137°
2026-05-08 19:58 57.18475 65.32180 331 ft 13 kts 129°
2026-05-08 19:59 57.18464 65.32352 329 ft 17 kts 89°
2026-05-08 19:59 57.18469 65.32594 328 ft 20 kts 87°
2026-05-08 19:59 57.18474 65.32842 330 ft 19 kts 88°
2026-05-08 19:59 57.18478 65.33055 332 ft 13 kts 84°
2026-05-08 20:00 57.18530 65.33190 331 ft 13 kts 46°
2026-05-08 20:00 57.18592 65.33313 338 ft 13 kts 47°
2026-05-08 20:00 57.18622 65.33466 340 ft 14 kts 90°
2026-05-08 20:00 57.18602 65.33627 339 ft 13 kts 128°
2026-05-08 20:01 57.18533 65.33758 338 ft 16 kts 135°
2026-05-08 20:01 57.18452 65.33907 336 ft 18 kts 135°
2026-05-08 20:01 57.18361 65.34076 334 ft 17 kts 134°
2026-05-08 20:01 57.18276 65.34234 337 ft 19 kts 135°
2026-05-08 20:02 57.18189 65.34396 336 ft 15 kts 134°
2026-05-08 20:02 57.18127 65.34512 338 ft 9 kts 135°
2026-05-08 20:02 57.18113 65.34538 339 ft 2 kts 135°
2026-05-08 20:02 57.18091 65.34577 339 ft 6 kts 135°
2026-05-08 20:03 57.18064 65.34650 336 ft 5 kts 92°
2026-05-08 20:03 57.18078 65.34698 337 ft 3 kts 49°
2026-05-08 20:03 57.18099 65.34738 337 ft 3 kts 45°
2026-05-08 20:03 57.18106 65.34750 338 ft 0 kts 45°
2026-05-08 20:04 57.18106 65.34751 338 ft 0 kts 45°